Location: Bakov nad Jizerou
(50.4784°N, 14.9394°E)
Time: 17:05:17
(UTC+00:00)

Cosmos 2322 - Pass Details

Date: 30 October 2021
Orbit: 841 x 854 km, 71.0° (Epoch: 04 December)

Event Time Altitude Azimuth Distance (km) Brightness Sun altitude
Exits shadow 04:20:08 19° 253° (WSW) 1,937 5.0 -14.4°
Drops below altitude 10° 04:23:21 10° 218° (SW) 2,464 5.8 -13.9°
Sets 04:26:28 0° 201° (SSW) 3,391 6.7 -13.4°
